Météo Nord-Pas-de-Calais   La météo au plus près de chez vous

Station météorologique

Observations météo à Breil Sur Roya (06023)

06023004 305 m Dernier relevé à 11:12

Journée consultée

Mercredi 2 Septembre 2026

Synthèse de la journée

Périodes de référence en UTC

Rafale maximale

11 km/h

à 02:36

00h 00h

Précipitations

0 mm

Cumul quotidien

06h 06h

Graphiques de la journée

Heure locale Réduire

Données détaillées

Relevés météo

Pas de 6 minutes Afficher les relevés infra-horaires
Relevés météo détaillés à Breil Sur Roya pour le Mercredi 2 Septembre 2026
Heure Vent moyen (raf.), km/h Précipitations mm
11:12 4 km/h (10 km/h) 0 mm0 mm
11:06 2 km/h (9 km/h) 0 mm0 mm
11:00 0 km/h (4 km/h) 0 mm0 mm
10:54 0 km/h (4 km/h) 0 mm0 mm
10:48 0 km/h (4 km/h) 0 mm0 mm
10:42 3 km/h (5 km/h) 0 mm0 mm
10:36 2 km/h (5 km/h) 0 mm0 mm
10:30 2 km/h (5 km/h) 0 mm0 mm
10:24 2 km/h (4 km/h) 0 mm0 mm
10:18 2 km/h (4 km/h) 0 mm0 mm
10:12 3 km/h (5 km/h) 0 mm0 mm
10:06 2 km/h (5 km/h) 0 mm0 mm
10:00 0 km/h (4 km/h) 0 mm0 mm
09:54 2 km/h (5 km/h) 0 mm0 mm
09:48 2 km/h (4 km/h) 0 mm0 mm
09:42 2 km/h (4 km/h) 0 mm0 mm
09:36 0 km/h (4 km/h) 0 mm0 mm
09:30 0 km/h (4 km/h) 0 mm0 mm
09:24 0 km/h (3 km/h) 0 mm0 mm
09:18 0 km/h (4 km/h) 0 mm0 mm
09:12 2 km/h (4 km/h) 0 mm0 mm
09:06 3 km/h (4 km/h) 0 mm0 mm
09:00 3 km/h (4 km/h) 0 mm0 mm
08:54 2 km/h (4 km/h) 0 mm0 mm
08:48 0 km/h (4 km/h) 0 mm0 mm
08:42 0 km/h (5 km/h) 0 mm0 mm
08:36 3 km/h (5 km/h) 0 mm0 mm
08:30 3 km/h (5 km/h) 0 mm0 mm
08:24 3 km/h (7 km/h) 0 mm0 mm
08:18 4 km/h (7 km/h) 0 mm0 mm
08:12 3 km/h (6 km/h) 0 mm0 mm
08:06 3 km/h (9 km/h) 0 mm0 mm
08:00 4 km/h (9 km/h) 0 mm0 mm
07:54 3 km/h (5 km/h) 0 mm0 mm
07:48 3 km/h (7 km/h) 0 mm0 mm
07:42 4 km/h (8 km/h) 0 mm0 mm
07:36 3 km/h (9 km/h) 0 mm0 mm
07:30 3 km/h (9 km/h) 0 mm0 mm
07:24 2 km/h (5 km/h) 0 mm0 mm
07:18 3 km/h (7 km/h) 0 mm0 mm
07:12 4 km/h (8 km/h) 0 mm0 mm
07:06 4 km/h (8 km/h) 0 mm0 mm
07:00 4 km/h (7 km/h) 0 mm0 mm
06:54 2 km/h (5 km/h) 0 mm0 mm
06:48 3 km/h (8 km/h) 0 mm0 mm
06:42 4 km/h (8 km/h) 0 mm0 mm
06:36 3 km/h (7 km/h) 0 mm0 mm
06:30 3 km/h (8 km/h) 0 mm0 mm
06:24 5 km/h (9 km/h) 0 mm0 mm
06:18 4 km/h (9 km/h) 0 mm0 mm
06:12 4 km/h (7 km/h) 0 mm0 mm
06:06 4 km/h (8 km/h) 0 mm0 mm
06:00 3 km/h (8 km/h) 0 mm0 mm
05:54 3 km/h (5 km/h) 0 mm0 mm
05:48 4 km/h (9 km/h) 0 mm0 mm
05:42 4 km/h (9 km/h) 0 mm0 mm
05:36 3 km/h (6 km/h) 0 mm0 mm
05:30 2 km/h (7 km/h) 0 mm0 mm
05:24 2 km/h (6 km/h) 0 mm0 mm
05:18 3 km/h (6 km/h) 0 mm0 mm
05:12 3 km/h (6 km/h) 0 mm0 mm
05:06 3 km/h (6 km/h) 0 mm0 mm
05:00 3 km/h (6 km/h) 0 mm0 mm
04:54 2 km/h (5 km/h) 0 mm0 mm
04:48 3 km/h (7 km/h) 0 mm0 mm
04:42 3 km/h (7 km/h) 0 mm0 mm
04:36 3 km/h (6 km/h) 0 mm0 mm
04:30 3 km/h (7 km/h) 0 mm0 mm
04:24 5 km/h (7 km/h) 0 mm0 mm
04:18 5 km/h (8 km/h) 0 mm0 mm
04:12 4 km/h (7 km/h) 0 mm0 mm
04:06 3 km/h (6 km/h) 0 mm0 mm
04:00 4 km/h (8 km/h) 0 mm0 mm
03:54 4 km/h (8 km/h) 0 mm0 mm
03:48 3 km/h (6 km/h) 0 mm0 mm
03:42 3 km/h (6 km/h) 0 mm0 mm
03:36 3 km/h (7 km/h) 0 mm0 mm
03:30 3 km/h (7 km/h) 0 mm0 mm
03:24 3 km/h (8 km/h) 0 mm0 mm
03:18 4 km/h (9 km/h) 0 mm0 mm
03:12 4 km/h (9 km/h) 0 mm0 mm
03:06 4 km/h (8 km/h) 0 mm0 mm
03:00 3 km/h (5 km/h) 0 mm0 mm
02:54 4 km/h (7 km/h) 0 mm0 mm
02:48 4 km/h (7 km/h) 0 mm0 mm
02:42 4 km/h (9 km/h) 0 mm0 mm
02:36 5 km/h (11 km/h) 0 mm0 mm
02:30 4 km/h (10 km/h) 0 mm0 mm
02:24 4 km/h (8 km/h) 0 mm0 mm
02:18 3 km/h (5 km/h) 0 mm0 mm
02:12 4 km/h (9 km/h) 0 mm0 mm
02:06 4 km/h (9 km/h) 0 mm0 mm
02:00 3 km/h (6 km/h) 0 mm0 mm
01:54 4 km/h (10 km/h) 0 mm0 mm
01:48 5 km/h (10 km/h) 0 mm0 mm
01:42 5 km/h (10 km/h) 0 mm0 mm
01:36 3 km/h (10 km/h) 0 mm0 mm
01:30 3 km/h (6 km/h) 0 mm0 mm
01:24 3 km/h (6 km/h) 0 mm0 mm
01:18 2 km/h (5 km/h) 0 mm0 mm
01:12 3 km/h (7 km/h) 0 mm0 mm
01:06 4 km/h (8 km/h) 0 mm0 mm
01:00 4 km/h (8 km/h) 0 mm0 mm
00:54 3 km/h (8 km/h) 0 mm0 mm
00:48 2 km/h (8 km/h) 0 mm0 mm
00:42 3 km/h (9 km/h) 0 mm0 mm
00:36 2 km/h (6 km/h) 0 mm0 mm
00:30 3 km/h (7 km/h) 0 mm0 mm
00:24 0 km/h (6 km/h) 0 mm0 mm
00:18 3 km/h (8 km/h) 0 mm0 mm
00:12 2 km/h (7 km/h) 0 mm0 mm
00:06 2 km/h (6 km/h) 0 mm0 mm
00:00 4 km/h (8 km/h) 0 mm0 mm

Données via Météo-France

Relevés météo à Breil Sur Roya

Cette page rassemble les observations de la station de Breil Sur Roya : température, humidité, vent, précipitations et pression atmosphérique. Les graphiques facilitent le suivi de la journée, tandis que le tableau donne accès aux mesures horaires et infra-horaires disponibles.

Pour replacer ces mesures dans leur contexte, consultez la climatologie de Breil Sur Roya. Retrouvez aussi la carte des observations météo en temps réel.